sat.trackr.live / text

‹ back to catalog

STARLINK-3132

NORAD 49457 · 2021-104BB

PAYLOAD ACTIVE UNKNOWN

§ Identity

Operator
Country
US
Launch date
2021-11-13
Launch site
AFETR
Launch vehicle
Mass (kg)
RCS (m²)

Purposes: comms

External: N2YO · Heavens-Above · Gunter

§ Orbital elements

Epoch: 2026-05-24T23:12:44.807328Z

Period
95.44 min
Inclination
53.2133°
Eccentricity
0.0001366
Mean motion
15.08820737 rev/d
Perigee alt
538.9 km
Apogee alt
540.7 km
Semi-major
6,917.9 km
B*
2.4412e-4
RAAN
236.7056°
Arg perigee
92.8849°
Mean anomaly
267.2299°
Rev number
25,029

§ Raw data

STARLINK-31321 49457U 21104BB  26144.96718527  .00003597  00000+0  24412-3 0  99982 49457  53.2133 236.7056 0001366  92.8849 267.2299 15.08820737250299

JSON: /api/v1/satellites/49457 · /tle

For live sub-satellite position, see the globe view (requires WebGL).

§ Visibility from observer

Set your observer location to see the next 7 days of passes ≥ 10°. The values pass through the URL so the page stays shareable.

No JS? Fill the form by hand. The geolocation button needs JavaScript.